Dewpoint
60 54 51 51 53 57 55 48 38 40 37 30 27 27 24 21 21 24 23 23 29 39 36 37 37 41 37 42 44 36 42 40 43 40 43 43 41 45 59 65 66 67 68 70 71 72 72 73 74 74 74 74 74 74 74 74 74 74 74 74 74 74 74 73 73 73 73 72 72 72 72 72 73 73 73 72 71 71 70 70 70 70 70 70 71 71 71 71 71 71 71 71 71 71 71 71 71
48 56 56 50 53 56 49 45 38 32 31 27 22 21 22 21 21 17 20 28 34 36 41 42 39 41 42 42 45 39 42 44 42 39 39 37 39 52 63 65 65 67 69 70 70 70 71 72 74 74 74 73 73 73 74 74 74 74 74 74 73 73 73 73 73 73 72 72 72 73 73 73 72 72 71 71 71 70 70 70 70 70 70 70 71 71 71 71 71 71 71 71 71 71 71 71 71
47 51 48 54 52 50 45 44 35 29 24 24 22 19 20 21 19 15 28 25 31 36 42 45 45 47 50 38 38 38 43 41 39 37 35 37 45 56 63 63 65 67 68 69 69 70 71 72 74 74 74 73 73 73 74 74 74 73 73 73 73 73 73 73 73 72 72 73 72 73 73 72 72 71 71 70 70 70 70 69 69 69 70 70 71 71 71 71 71 71 71 71 70 71 71 71 71
49 50 50 46 42 41 37 33 32 28 25 21 20 21 19 19 15 34 36 34 38 38 40 46 44 51 47 46 47 38 38 37 35 34 34 39 49 58 62 62 66 67 67 67 68 69 71 73 74 74 74 73 73 73 73 73 73 73 73 73 73 73 73 72 72 73 73 73 73 73 73 72 71 71 71 70 70 70 70 69 69 69 70 70 70 71 71 71 71 71 71 70 70 70 70 70 70
42 48 48 42 38 35 31 29 28 27 22 19 15 16 19 16 14 17 34 35 37 38 37 44 40 42 42 42 43 45 42 37 35 34 36 43 52 59 62 63 65 65 65 66 68 70 71 73 74 74 73 73 73 73 73 73 73 73 73 73 73 72 72 73 73 73 73 73 73 73 72 71 71 70 70 70 69 69 69 69 69 69 69 69 70 70 71 71 71 71 70 70 70 70 69 70 70
38 43 43 38 31 32 32 28 26 25 21 16 14 15 16 12 15 18 23 27 42 36 36 39 41 40 45 43 45 45 44 37 36 37 40 45 54 61 62 65 63 63 63 66 69 71 71 74 74 73 73 73 73 72 73 73 73 73 73 73 72 72 73 73 73 73 73 73 73 72 71 71 71 70 69 69 69 69 68 68 68 69 69 69 69 70 71 71 71 71 70 70 69 69 70 70 69
32 36 37 36 34 30 27 28 25 24 23 19 15 15 15 16 14 17 22 31 47 43 37 37 42 40 45 48 46 45 47 47 39 41 43 48 57 61 62 63 61 61 64 67 69 70 71 74 73 73 73 73 73 72 72 72 72 72 72 72 72 72 73 73 73 73 73 73 72 72 71 71 70 70 69 69 69 68 68 68 68 69 69 70 70 70 71 71 71 71 70 69 69 69 69 69 69
35 32 29 31 30 26 22 21 23 23 20 19 19 19 19 19 21 16 17 36 37 39 36 39 40 40 44 49 47 51 48 52 44 44 46 52 59 64 62 61 60 61 64 69 71 71 74 73 73 73 73 73 72 72 72 72 72 72 72 72 72 72 72 72 72 73 73 72 72 71 71 70 70 69 69 68 68 68 67 68 68 68 69 69 70 70 71 71 71 70 70 70 69 69 69 69 68
30 30 32 27 26 26 23 20 18 19 20 16 16 22 36 22 21 20 18 25 28 35 41 38 40 40 44 43 46 49 53 52 48 52 50 58 64 66 63 61 59 62 66 69 71 72 72 74 73 73 73 73 72 72 72 72 72 72 72 72 72 72 73 72 72 72 72 72 71 71 70 70 69 69 68 67 67 67 67 67 67 67 68 69 69 70 70 71 70 70 69 69 69 68 69 67 68
28 29 28 26 26 24 21 21 21 20 19 20 20 20 17 20 20 21 23 24 32 42 42 39 42 40 44 46 48 53 54 56 56 49 56 60 66 69 66 61 61 65 69 72 71 71 71 74 73 73 73 73 73 72 72 72 73 72 72 72 73 73 73 72 73 72 72 71 71 71 70 69 69 68 67 67 67 67 67 67 67 67 68 68 69 70 70 70 70 70 70 70 70 70 68 68 68
25 26 27 26 25 23 21 20 21 20 21 23 19 19 16 18 20 20 22 27 29 28 41 37 36 39 48 51 55 56 55 55 54 55 58 63 67 67 63 64 64 67 71 71 70 71 71 71 74 73 73 73 73 73 73 73 73 73 73 73 73 73 72 73 72 72 71 70 70 69 69 69 68 67 67 67 67 67 67 67 67 68 68 68 69 69 70 70 70 69 69 68 68 69 68 68 69
23 24 25 23 24 22 20 21 20 21 21 20 22 20 19 19 20 21 22 21 34 28 27 34 38 39 43 48 52 54 53 56 58 61 62 65 63 68 65 62 62 69 71 70 70 70 70 71 71 73 73 73 73 73 73 73 73 73 73 73 73 72 72 72 72 71 70 70 70 69 69 68 67 67 67 67 67 67 67 67 69 69 68 68 68 69 70 70 69 69 68 69 68 68 69 68 69
22 21 23 23 21 21 20 20 20 22 21 20 20 23 21 21 20 20 22 23 22 32 29 35 44 47 44 46 51 52 56 57 61 65 65 61 60 59 62 62 64 68 69 70 69 69 69 69 69 71 72 73 73 73 73 73 73 73 73 73 72 72 71 71 71 70 70 70 69 69 69 68 67 67 67 67 67 68 67 68 69 68 68 68 68 69 69 69 69 68 67 67 69 68 69 70 68
21 20 19 21 21 18 18 18 18 20 22 22 23 23 20 20 20 19 20 22 23 23 33 43 42 44 46 48 51 53 55 59 64 64 62 60 64 66 66 65 67 68 68 68 68 68 68 68 69 69 70 71 71 73 73 73 73 73 73 72 72 71 71 70 70 70 70 70 69 69 68 67 67 67 67 68 67 68 69 69 69 68 68 68 69 69 69 69 68 68 68 67 67 70 68 68 70
19 20 19 17 18 19 16 15 18 20 21 21 22 22 20 22 20 22 21 22 23 24 43 42 33 47 44 46 49 53 59 60 63 63 61 61 63 66 66 67 68 66 67 68 68 68 68 68 68 69 69 68 70 71 71 72 73 73 72 72 71 71 70 70 69 70 70 70 69 69 68 67 67 66 67 68 68 70 69 68 69 68 68 68 69 69 69 69 68 68 68 68 68 69 70 68 69
18 18 19 18 16 16 17 16 16 17 17 20 20 22 19 19 20 22 22 23 24 23 47 39 34 40 48 48 47 52 60 63 64 63 61 59 61 64 65 65 65 65 67 68 68 67 67 67 67 68 68 68 69 70 70 71 72 72 72 72 71 70 70 70 70 70 69 69 69 69 68 67 67 66 67 66 67 68 69 68 68 68 68 68 69 69 69 69 69 68 67 70 69 70 70 70 69
19 18 17 17 16 15 15 16 16 13 15 15 18 18 17 18 19 17 19 21 20 20 22 26 35 42 42 44 46 51 61 64 65 61 63 64 65 65 65 65 65 66 66 67 67 67 66 66 67 67 67 67 68 69 70 70 71 72 72 72 71 70 70 70 71 70 69 69 68 68 68 66 67 67 67 65 67 67 68 69 69 68 68 68 68 69 69 69 69 69 69 69 70 70 69 69 69
17 17 16 15 16 15 15 15 16 17 14 13 14 15 16 16 19 19 19 19 17 20 24 28 41 42 42 45 48 55 60 62 62 62 64 64 65 64 64 65 65 66 66 66 66 65 66 66 67 66 67 67 67 69 68 71 71 70 70 71 70 69 70 70 70 69 70 69 68 67 67 67 66 66 66 66 67 67 66 69 69 69 69 68 68 69 69 69 69 69 69 69 71 70 71 67 66
14 16 16 14 15 15 16 16 16 16 14 15 14 12 15 16 19 19 18 18 19 19 33 39 41 38 43 50 57 59 61 61 63 64 63 62 61 62 62 64 64 66 65 66 67 66 67 67 67 66 66 67 67 67 67 71 70 69 69 70 69 69 69 69 69 69 68 68 66 66 68 67 65 66 65 66 66 66 66 69 69 69 68 68 68 69 69 70 69 69 70 71 70 70 68 63 59
14 14 14 15 15 15 17 16 16 16 14 15 15 14 14 16 17 19 16 17 19 19 37 36 33 39 42 54 58 60 62 62 64 64 60 59 59 60 61 62 63 65 65 66 66 67 67 67 67 67 67 67 67 67 68 70 69 68 69 69 69 69 68 68 69 68 68 67 66 67 68 67 67 66 66 67 65 66 69 70 69 68 68 68 68 69 69 69 70 69 70 70 69 66 58 59 56
15 14 13 14 16 16 16 16 16 16 15 15 16 15 14 13 15 17 17 16 17 19 28 38 36 42 48 50 60 61 62 63 62 61 60 55 57 61 62 63 63 64 66 66 66 68 67 68 68 67 68 67 67 68 69 69 69 68 68 68 68 68 67 68 68 70 70 68 66 67 66 67 66 65 67 65 66 66 68 68 68 67 67 67 68 68 67 64 68 64 65 68 64 60 56 55 55
15 13 13 13 16 17 17 15 14 15 17 15 13 15 15 16 17 16 16 16 16 17 20 41 40 46 49 53 58 60 60 59 59 60 60 60 63 64 65 65 66 66 67 66 66 67 69 69 69 68 67 67 68 68 69 69 69 67 67 67 68 67 66 67 68 69 70 69 66 66 67 67 69 66 66 66 66 66 65 66 66 66 66 66 67 67 65 64 64 61 58 60 60 58 56 57 63
14 14 13 13 14 14 14 15 16 17 16 15 13 16 16 16 16 17 15 16 17 18 33 42 43 43 49 54 59 59 59 58 60 58 59 65 63 64 65 64 63 64 66 66 66 67 69 69 69 67 67 67 68 69 69 68 67 68 68 67 67 67 66 65 68 66 69 71 68 66 70 65 69 67 67 66 65 65 65 64 65 65 65 65 67 65 63 63 61 60 56 57 57 55 50 53 66
13 13 14 13 13 13 13 16 14 16 16 10 16 18 14 15 15 17 15 17 17 17 40 42 45 45 50 50 53 57 57 57 59 61 59 66 65 66 66 64 63 63 63 66 67 68 68 68 68 67 67 67 68 67 69 67 66 67 69 68 68 68 67 65 65 67 68 70 70 69 67 65 66 67 65 65 65 66 66 64 65 64 64 63 65 63 59 60 62 61 57 54 55 52 53 62 65
11 12 14 14 12 13 15 16 16 13 13 15 15 14 14 15 15 16 16 16 17 17 39 43 41 48 51 51 52 57 57 59 59 61 67 67 68 69 68 66 65 64 62 66 66 67 68 68 68 67 67 67 67 69 69 67 65 67 68 67 68 69 67 66 66 67 69 69 70 71 69 69 65 66 65 65 64 65 67 66 65 63 63 62 64 63 57 60 65 64 62 59 60 60 56 65 67
7 10 12 13 13 13 15 15 14 14 13 13 15 14 13 15 15 15 15 17 18 18 18 47 50 51 51 52 53 56 59 59 59 60 65 69 69 69 69 67 66 65 66 67 67 67 68 68 69 66 68 67 67 69 68 67 66 66 68 68 67 68 68 68 69 68 70 68 68 72 70 71 69 67 66 65 65 69 69 70 70 70 68 68 67 63 60 63 65 61 59 60 55 59 55 65 66
4 7 10 10 11 11 14 13 14 14 14 13 10 13 14 14 15 13 16 17 18 18 18 20 51 46 49 50 53 55 58 60 60 63 65 69 69 68 69 69 67 66 68 67 67 67 68 68 68 67 69 69 67 69 68 69 66 66 66 67 68 67 68 68 69 68 69 69 68 71 70 69 70 72 69 68 69 70 70 71 70 69 69 66 66 64 63 63 64 62 61 64 61 58 64 67 68
1 2 3 8 10 12 13 13 12 13 12 13 12 10 12 14 12 12 15 16 16 16 16 19 36 43 43 44 49 52 59 60 60 62 64 68 69 67 68 68 67 67 68 67 66 67 69 67 68 68 70 69 68 68 69 71 68 66 67 67 66 66 69 69 66 68 68 68 68 70 71 69 70 70 72 66 68 69 69 70 70 68 67 66 66 67 63 61 64 59 60 64 66 64 65 65 66
3 1 2 6 4 9 7 10 13 13 12 13 14 10 11 13 13 14 15 17 15 16 15 15 39 39 43 42 49 55 56 58 59 61 64 69 68 69 68 69 68 67 68 69 68 68 69 68 68 70 69 70 69 68 68 69 69 66 68 68 67 68 69 68 67 67 68 69 69 69 70 69 71 71 73 68 68 69 69 69 69 67 67 65 68 67 64 64 64 65 69 65 68 65 66 67 68
7 11 6 5 6 11 11 8 15 12 13 8 4 13 10 8 13 14 15 16 16 15 15 15 16 29 29 47 48 56 56 58 61 65 69 69 68 67 68 69 69 67 67 69 69 69 68 69 69 70 68 69 70 68 70 69 69 67 69 68 68 69 68 69 68 68 68 69 69 69 69 69 70 71 71 69 71 69 68 69 68 67 68 68 69 66 71 64 64 64 65 65 67 65 64 66 68
4 8 11 11 11 10 11 11 12 5 11 7 11 12 9 0 12 13 13 16 16 14 14 16 15 16 17 33 51 53 56 59 63 66 69 70 69 68 68 68 68 68 67 68 69 69 69 69 69 69 69 68 70 69 70 71 70 68 67 67 68 68 67 67 71 69 67 68 68 68 69 69 68 69 70 72 70 70 68 68 68 68 68 70 69 72 72 66 66 66 67 61 67 65 66 65 67
5 5 7 9 9 10 10 8 5 8 12 13 10 13 12 6 12 15 14 16 16 14 15 15 15 15 17 46 42 50 50 58 65 65 69 70 70 68 68 67 68 68 68 69 69 70 69 70 70 71 70 69 70 70 71 73 69 70 69 69 70 67 66 66 69 68 66 67 67 68 69 69 69 69 69 69 70 69 67 67 67 69 67 71 71 70 68 68 64 66 66 69 66 65 66 67 67
4 5 6 7 7 6 9 11 10 9 11 14 15 14 13 0 7 15 10 13 12 14 15 17 16 15 20 24 52 48 51 58 63 64 69 69 69 69 68 68 68 69 69 69 69 70 69 70 70 71 71 70 70 71 71 72 73 71 70 68 70 68 67 67 68 69 67 68 68 67 69 69 69 68 68 67 70 67 67 66 66 68 71 69 70 70 66 66 66 65 70 68 68 67 66 65 66
1 3 5 4 2 4 6 8 12 12 15 15 15 14 10 6 13 15 13 12 13 13 14 16 16 19 26 52 49 53 60 59 61 62 69 69 69 70 69 68 69 70 70 69 70 70 70 70 70 71 70 71 70 71 71 71 72 71 73 69 71 68 68 67 68 67 67 67 67 67 68 69 69 67 68 69 69 68 67 66 66 67 68 70 70 69 65 64 68 68 69 69 67 69 64 64 65
1 4 6 2 1 2 1 1 1 5 12 14 14 16 14 13 13 12 11 14 13 13 13 14 15 21 29 42 54 53 59 61 60 59 64 65 69 70 69 69 69 70 70 70 69 70 70 70 70 71 70 71 71 71 71 72 72 72 70 70 69 68 68 68 67 65 66 67 67 68 67 69 69 68 68 69 68 67 67 67 67 70 68 70 70 70 67 66 67 70 70 69 67 67 68 65 65
-9 -6 -5 -3 -2 -3 -1 -0 -2 -0 3 6 10 11 11 14 16 14 14 14 9 9 14 18 20 15 25 44 49 48 54 57 58 61 65 64 64 69 70 69 69 70 70 70 69 70 70 70 70 71 70 71 71 71 70 69 69 68 67 68 67 66 66 65 67 64 67 66 66 67 67 69 67 69 67 69 68 68 67 68 70 69 69 69 69 68 68 65 69 69 70 68 67 67 67 66 66
-11 -11 -9 -7 -4 -3 -3 -2 -1 -2 -3 1 8 8 6 7 13 9 10 17 13 10 16 15 14 21 29 31 49 50 53 55 58 64 63 63 64 67 71 70 70 71 70 70 69 70 70 69 70 70 70 71 70 70 69 68 67 67 67 67 67 67 65 67 67 69 65 65 65 66 67 68 67 68 68 68 68 69 68 70 70 68 68 68 69 69 69 70 70 70 69 69 66 67 66 66 65
-9 -9 -6 -8 -7 -6 -4 -2 2 -0 -3 -5 2 5 8 8 7 2 12 16 6 13 17 17 15 17 29 29 27 47 54 52 57 62 62 63 62 65 69 70 70 70 71 70 69 69 69 70 69 70 70 70 70 70 69 69 68 67 67 67 66 65 66 65 66 67 68 67 67 66 67 67 67 68 69 69 69 69 68 69 69 68 69 68 70 69 70 69 70 68 68 67 67 66 65 65 64
-4 -4 -5 -7 -9 -6 -5 -9 -2 1 1 -1 -3 -0 3 7 8 8 8 5 10 13 13 18 18 21 27 24 24 33 49 53 54 59 61 61 65 65 69 70 70 70 71 70 70 70 70 69 70 70 70 70 70 70 70 68 69 69 68 68 67 66 67 67 65 66 69 66 69 67 68 67 67 67 68 69 68 69 69 69 69 69 68 68 69 69 69 69 69 68 68 67 66 66 66 65 64
-0 -2 -2 -2 -6 -4 -4 -5 -4 -3 -0 1 3 -0 6 9 9 9 9 8 13 13 13 16 26 20 22 25 26 27 36 51 52 55 56 62 67 68 69 70 70 71 70 70 70 69 70 69 69 70 70 70 70 70 69 70 70 70 70 69 69 67 66 67 68 68 69 70 68 67 67 68 67 67 67 67 68 69 69 70 70 70 68 68 70 68 68 68 69 69 68 67 66 64 64 64 65
-1 -3 -5 -5 -5 -5 -6 -7 -4 -2 -0 1 7 9 9 11 11 10 11 11 9 10 14 18 18 26 23 20 19 28 29 51 50 56 55 63 69 69 69 70 70 70 70 70 70 69 69 69 69 70 70 70 70 70 70 70 70 70 69 69 69 68 68 67 67 65 66 67 67 67 67 68 67 67 67 67 67 69 69 70 69 69 69 69 69 68 68 67 68 68 68 67 66 65 64 65 67
-2 -5 -7 -8 -9 -9 -12 -10 -11 -5 3 8 8 7 10 13 12 11 9 7 7 7 12 13 15 20 23 29 29 33 36 39 49 55 58 65 69 68 69 70 70 70 70 70 69 69 69 69 69 70 70 70 70 70 70 70 69 68 67 67 66 66 65 65 64 64 65 65 64 67 67 67 67 67 67 67 66 69 69 69 70 69 69 69 69 69 68 68 68 67 67 68 67 67 65 66 65
2 -3 -5 -8 -10 -11 -12 -14 -13 -8 -4 -1 8 9 11 13 11 12 13 7 5 11 12 10 9 11 13 11 17 23 26 35 50 51 56 65 67 66 67 69 69 70 70 71 70 70 70 69 69 69 69 70 70 70 70 70 69 68 68 67 66 65 64 65 66 68 66 66 67 67 67 68 66 67 68 67 67 68 69 69 69 70 68 69 69 70 69 68 66 65 66 67 67 66 66 64 64
-2 3 2 -1 -7 -9 -10 -12 -11 -10 -6 -7 -2 2 5 6 7 7 5 7 5 2 -0 12 12 11 7 14 18 29 25 31 38 52 53 62 66 65 66 67 69 70 71 71 70 70 70 70 70 69 69 70 70 70 70 70 69 68 68 67 67 66 66 65 66 68 69 67 67 68 67 69 68 67 68 67 67 68 68 69 69 70 69 68 68 68 69 69 68 67 68 67 67 65 66 64 64
2 2 2 2 2 -4 -7 -8 -7 -6 -9 -6 -4 -1 3 0 3 4 4 3 6 8 9 12 12 8 10 21 20 24 28 32 31 35 49 63 65 66 65 67 68 70 71 70 70 70 71 70 70 70 69 69 69 70 70 69 69 69 69 68 67 67 67 67 67 68 68 68 68 68 67 67 67 67 67 68 67 67 68 69 68 68 69 67 66 67 67 67 68 68 68 67 67 65 64 66 65
4 4 2 4 3 3 0 -3 -3 -1 1 4 -5 -6 -3 -3 -0 -2 -1 -2 5 10 10 7 7 12 15 18 20 24 24 29 27 31 57 60 62 65 65 67 69 70 71 71 71 71 71 70 70 69 69 69 69 70 69 69 70 69 69 69 68 67 67 67 67 67 68 68 68 68 68 67 66 68 69 68 68 67 68 68 68 67 68 67 66 65 66 67 68 69 69 68 68 67 65 64 64
7 6 7 4 4 5 7 5 2 2 2 0 -5 -6 -8 -11 -7 -3 -2 -3 3 7 10 13 13 16 18 25 19 21 19 23 25 29 55 57 64 66 66 67 68 70 71 71 71 71 71 71 70 69 70 69 69 70 69 69 70 69 69 69 69 67 68 68 67 67 67 68 67 67 68 67 67 68 70 69 69 68 68 68 68 68 68 68 67 65 69 69 69 69 69 69 69 68 67 65 65
8 9 7 5 6 7 7 6 4 3 0 -3 -5 -5 -7 -8 -4 -8 -3 -3 -5 6 10 15 16 15 17 25 17 14 21 23 25 29 32 57 60 65 66 66 68 69 70 71 71 71 71 70 70 69 69 70 70 70 70 69 70 70 69 69 69 69 68 67 67 66 66 66 67 67 67 68 67 68 69 69 69 68 68 68 69 68 68 69 68 71 70 71 71 70 70 69 69 68 68 67 64
9 7 6 6 4 11 4 2 3 1 -0 -1 -5 -5 -7 -6 -0 -4 -7 -7 -4 -3 -5 7 13 13 15 16 21 22 23 21 22 26 34 41 55 62 66 65 67 69 69 70 70 70 70 70 70 69 69 70 70 70 70 69 70 70 70 70 70 70 69 69 67 67 67 66 67 67 67 67 68 68 69 69 69 69 69 69 69 69 68 69 69 70 70 69 70 70 69 69 69 68 68 68 67
10 9 10 8 3 3 5 3 5 -0 -1 -2 -4 -4 -6 -4 -4 -2 -2 0 -1 -1 4 3 3 16 15 13 19 21 23 22 27 30 34 38 44 59 64 65 69 70 68 69 70 69 69 69 70 69 69 70 70 70 70 70 70 70 70 70 70 70 69 70 68 67 68 67 67 67 67 67 67 68 68 68 69 69 69 70 69 69 70 70 68 69 68 69 68 68 68 68 68 68 68 68 67
9 10 6 8 6 3 6 1 4 2 -1 -3 -3 -5 -1 -5 -2 -3 -1 -1 1 0 -3 6 12 7 23 12 10 10 20 21 24 25 27 35 46 57 59 62 67 69 68 69 69 68 69 69 69 69 69 70 70 70 70 70 70 70 70 70 70 70 70 70 69 69 69 68 68 68 68 68 68 68 68 69 69 69 69 69 70 69 69 68 68 67 67 67 68 68 67 67 67 67 67 67 67
20 12 10 8 8 9 2 6 5 6 6 7 6 12 8 -1 1 3 -1 -2 2 7 6 15 12 12 11 13 18 24 23 22 23 28 29 36 47 52 58 58 62 69 69 69 68 68 69 69 69 69 69 69 69 70 70 69 70 70 70 70 70 71 70 70 70 69 69 70 69 69 69 69 69 69 69 69 70 70 70 70 69 69 69 67 67 66 67 67 68 67 67 66 65 67 66 66 66
17 14 16 10 10 6 12 14 12 16 11 8 13 11 10 9 9 10 1 0 0 2 3 5 12 18 26 35 33 24 26 23 30 30 30 38 47 49 56 57 58 63 68 69 69 69 69 69 69 69 69 69 69 69 70 69 69 69 70 70 70 71 71 70 69 70 70 70 70 70 69 69 69 69 70 70 70 70 70 69 68 69 69 67 66 67 67 67 67 66 67 66 66 67 66 66 66
16 15 12 13 14 15 16 8 11 8 6 9 7 6 6 4 7 7 6 2 2 3 1 3 16 19 19 26 29 32 37 40 41 29 34 36 46 48 52 54 56 58 64 67 69 69 69 69 69 69 69 69 69 69 69 70 69 69 69 69 70 71 70 70 70 70 70 70 70 70 69 69 69 69 69 70 70 69 70 69 69 69 70 68 67 67 67 66 66 65 65 65 66 66 66 66 66
15 13 15 13 16 15 14 14 10 10 9 8 7 4 4 3 6 4 6 5 3 3 5 4 8 13 19 23 27 30 31 37 36 39 46 44 49 53 52 52 53 55 58 66 67 69 69 69 69 68 68 68 69 69 69 69 70 69 69 69 70 70 70 70 70 70 70 69 69 69 69 69 69 70 69 69 69 69 69 69 69 68 69 69 68 67 66 66 65 65 66 66 65 65 64 65 66
15 16 15 14 14 16 17 19 13 11 8 10 6 5 7 4 6 7 7 11 7 4 4 5 4 10 22 23 24 26 29 34 33 36 42 49 54 55 53 54 50 54 54 58 65 67 67 68 69 68 68 68 69 69 69 69 70 69 69 69 70 70 70 70 70 70 70 68 69 69 69 69 69 69 69 69 68 68 68 68 68 68 68 68 68 67 67 66 66 66 65 65 64 63 63 63 63
14 14 13 13 17 14 13 16 11 13 12 9 6 5 7 9 4 5 4 7 15 12 9 13 11 10 15 18 28 28 27 33 35 37 39 42 46 54 52 55 47 52 54 54 56 62 66 67 67 68 68 68 68 69 69 69 70 69 69 69 70 70 70 70 70 70 70 69 69 69 69 70 69 69 69 68 68 67 67 67 67 67 66 66 67 66 66 66 65 65 65 64 63 63 61 62 62
16 13 14 13 12 14 11 10 7 5 7 9 6 5 9 9 4 3 5 7 6 7 12 16 13 13 17 23 28 29 31 32 35 36 38 38 40 45 46 46 52 49 51 53 51 56 61 65 66 66 66 67 68 68 68 68 69 70 69 69 70 70 70 70 70 70 70 69 69 69 70 70 69 69 69 68 67 67 67 67 66 66 65 65 65 65 65 65 64 64 64 63 63 61 61 61 61